Time,TemperatureF,DewpointF,PressureIn,WindDirection,WindDirectionDegrees,WindSpeedMPH,WindSpeedGustMPH,Humidity,HourlyPrecipIn,Conditions,Clouds,dailyrainin,SoftwareType,DateUTC
2011-12-07 00:03:00,18.0,6.8,30.14,SE,135,0.0,0.4,61,0.00,,,0.00,open2300-1.11,2011-12-07 07:03:00,
2011-12-07 00:18:00,17.4,6.2,30.15,SE,135,0.0,0.0,61,0.00,,,0.00,open2300-1.11,2011-12-07 07:18:00,
2011-12-07 00:32:00,17.2,6.1,30.15,SE,135,0.0,0.0,61,0.00,,,0.00,open2300-1.11,2011-12-07 07:32:00,
2011-12-07 00:47:00,16.9,6.0,30.15,SE,135,0.0,0.0,62,0.00,,,0.00,open2300-1.11,2011-12-07 07:47:00,
2011-12-07 01:03:00,16.3,5.8,30.15,East,90,0.0,0.0,63,0.00,,,0.00,open2300-1.11,2011-12-07 08:03:00,
2011-12-07 01:17:00,16.2,5.7,30.14,East,90,0.0,0.0,63,0.00,,,0.00,open2300-1.11,2011-12-07 08:17:00,
2011-12-07 01:33:00,16.0,5.5,30.14,East,90,0.0,0.0,63,0.00,,,0.00,open2300-1.11,2011-12-07 08:33:00,
2011-12-07 01:48:00,15.8,5.7,30.14,East,90,0.0,0.0,64,0.00,,,0.00,open2300-1.11,2011-12-07 08:48:00,
2011-12-07 02:02:00,15.8,5.7,30.14,East,90,3.6,3.6,64,0.00,,,0.00,open2300-1.11,2011-12-07 09:02:00,
2011-12-07 02:18:00,15.6,5.8,30.15,SSE,157,0.0,3.6,65,0.00,,,0.00,open2300-1.11,2011-12-07 09:18:00,
2011-12-07 02:33:00,15.3,5.5,30.16,South,180,0.0,5.4,65,0.00,,,0.00,open2300-1.11,2011-12-07 09:33:00,
2011-12-07 02:48:00,15.1,5.7,30.16,SSE,157,0.0,0.0,66,0.00,,,0.00,open2300-1.11,2011-12-07 09:48:00,
2011-12-07 03:02:00,14.9,5.5,30.16,ESE,112,0.0,0.0,66,0.00,,,0.00,open2300-1.11,2011-12-07 10:02:00,
2011-12-07 03:18:00,14.7,5.4,30.17,NE,45,0.0,1.8,66,0.00,,,0.00,open2300-1.11,2011-12-07 10:18:00,
2011-12-07 03:33:00,14.7,5.7,30.17,East,90,0.0,3.6,67,0.00,,,0.00,open2300-1.11,2011-12-07 10:33:00,
2011-12-07 03:48:00,14.2,5.2,30.16,East,90,0.0,0.0,67,0.00,,,0.00,open2300-1.11,2011-12-07 10:48:00,
2011-12-07 04:03:00,13.3,4.7,30.17,SE,135,0.0,0.0,68,0.00,,,0.00,open2300-1.11,2011-12-07 11:03:00,
2011-12-07 04:17:00,13.1,4.5,30.17,SE,135,0.0,0.0,68,0.00,,,0.00,open2300-1.11,2011-12-07 11:17:00,
2011-12-07 04:33:00,12.7,4.5,30.17,SE,135,0.0,0.9,69,0.00,,,0.00,open2300-1.11,2011-12-07 11:33:00,
2011-12-07 04:48:00,13.3,5.0,30.17,East,90,0.0,6.9,69,0.00,,,0.00,open2300-1.11,2011-12-07 11:48:00,
2011-12-07 05:03:00,12.9,5.0,30.16,SSE,157,0.0,2.9,70,0.00,,,0.00,open2300-1.11,2011-12-07 12:03:00,
2011-12-07 05:17:00,12.9,5.3,30.17,ESE,112,0.0,3.4,71,0.00,,,0.00,open2300-1.11,2011-12-07 12:17:00,
2011-12-07 05:33:00,13.3,5.7,30.17,SSE,157,0.0,3.4,71,0.00,,,0.00,open2300-1.11,2011-12-07 12:33:00,
2011-12-07 05:48:00,13.3,5.7,30.17,East,90,2.7,2.7,71,0.00,,,0.00,open2300-1.11,2011-12-07 12:48:00,
2011-12-07 06:02:00,13.6,6.0,30.17,SE,135,0.0,4.9,71,0.00,,,0.00,open2300-1.11,2011-12-07 13:02:00,
2011-12-07 06:18:00,13.1,5.5,30.17,SSE,157,3.1,5.1,71,0.00,,,0.00,open2300-1.11,2011-12-07 13:18:00,
2011-12-07 06:33:00,12.7,5.4,30.17,SE,135,2.2,4.0,72,0.00,,,0.00,open2300-1.11,2011-12-07 13:33:00,
2011-12-07 06:47:00,13.3,5.7,30.18,SE,135,0.0,4.2,71,0.00,,,0.00,open2300-1.11,2011-12-07 13:47:00,
2011-12-07 07:03:00,12.9,5.3,30.18,SE,135,0.0,0.0,71,0.00,,,0.00,open2300-1.11,2011-12-07 14:03:00,
2011-12-07 07:17:00,12.7,5.1,30.18,ESE,112,0.0,0.0,71,0.00,,,0.00,open2300-1.11,2011-12-07 14:17:00,
2011-12-07 07:33:00,13.3,5.7,30.18,SSE,157,0.0,0.0,71,0.00,,,0.00,open2300-1.11,2011-12-07 14:33:00,
2011-12-07 07:47:00,13.3,5.7,30.19,ENE,67,0.0,0.0,71,0.00,,,0.00,open2300-1.11,2011-12-07 14:47:00,
2011-12-07 08:03:00,13.8,6.2,30.19,SSE,157,0.0,4.7,71,0.00,,,0.00,open2300-1.11,2011-12-07 15:03:00,
2011-12-07 08:18:00,15.1,7.7,30.18,East,90,0.0,0.0,72,0.00,,,0.00,open2300-1.11,2011-12-07 15:18:00,
2011-12-07 08:33:00,17.2,9.1,30.18,South,180,0.0,0.7,70,0.00,,,0.00,open2300-1.11,2011-12-07 15:33:00,
2011-12-07 08:48:00,19.4,10.1,30.18,ESE,112,1.1,5.8,67,0.00,,,0.00,open2300-1.11,2011-12-07 15:48:00,
2011-12-07 09:02:00,21.4,11.0,30.18,ENE,67,5.6,5.6,64,0.00,,,0.00,open2300-1.11,2011-12-07 16:02:00,
2011-12-07 09:18:00,23.7,12.5,30.17,ENE,67,0.7,5.8,62,0.00,,,0.00,open2300-1.11,2011-12-07 16:18:00,
2011-12-07 09:32:00,27.1,14.2,30.18,South,180,0.0,0.7,58,0.00,,,0.00,open2300-1.11,2011-12-07 16:32:00,
2011-12-07 09:48:00,29.1,14.5,30.17,South,180,0.0,3.8,54,0.00,,,0.00,open2300-1.11,2011-12-07 16:48:00,
2011-12-07 10:02:00,32.2,16.0,30.17,SSW,202,0.0,3.8,51,0.00,,,0.00,open2300-1.11,2011-12-07 17:02:00,
2011-12-07 10:18:00,34.3,15.6,30.17,SW,225,0.0,0.9,46,0.00,,,0.00,open2300-1.11,2011-12-07 17:18:00,
2011-12-07 10:33:00,36.9,15.8,30.17,SW,225,0.0,1.8,42,0.00,,,0.00,open2300-1.11,2011-12-07 17:33:00,
2011-12-07 10:48:00,39.0,16.1,30.16,SW,225,0.0,3.1,39,0.00,,,0.00,open2300-1.11,2011-12-07 17:48:00,
2011-12-07 11:03:00,40.3,15.9,30.15,SSW,202,0.0,0.0,37,0.00,,,0.00,open2300-1.11,2011-12-07 18:03:00,
2011-12-07 11:18:00,41.5,17.0,30.14,West,270,0.0,0.0,37,0.00,,,0.00,open2300-1.11,2011-12-07 18:18:00,
2011-12-07 11:33:00,42.6,16.6,30.13,WNW,292,0.0,2.7,35,0.00,,,0.00,open2300-1.11,2011-12-07 18:33:00,
2011-12-07 11:48:00,43.0,17.0,30.13,WNW,292,2.5,5.8,35,0.00,,,0.00,open2300-1.11,2011-12-07 18:48:00,
2011-12-07 12:03:00,43.0,17.0,30.12,WNW,292,4.0,6.3,35,0.00,,,0.00,open2300-1.11,2011-12-07 19:03:00,
2011-12-07 12:18:00,43.9,17.1,30.11,West,270,0.0,5.8,34,0.00,,,0.00,open2300-1.11,2011-12-07 19:18:00,
2011-12-07 12:33:00,45.1,18.2,30.10,WNW,292,5.6,5.6,34,0.00,,,0.00,open2300-1.11,2011-12-07 19:33:00,
2011-12-07 12:47:00,45.5,17.9,30.10,WNW,292,6.5,6.5,33,0.00,,,0.00,open2300-1.11,2011-12-07 19:47:00,
2011-12-07 13:02:00,46.2,18.5,30.09,SW,225,5.8,6.5,33,0.00,,,0.00,open2300-1.11,2011-12-07 20:02:00,
2011-12-07 13:18:00,46.9,19.2,30.08,WNW,292,0.0,5.8,33,0.00,,,0.00,open2300-1.11,2011-12-07 20:18:00,
2011-12-07 13:33:00,47.5,19.0,30.08,WNW,292,3.1,5.8,32,0.00,,,0.00,open2300-1.11,2011-12-07 20:33:00,
2011-12-07 13:48:00,47.5,19.0,30.07,WNW,292,4.5,7.4,32,0.00,,,0.00,open2300-1.11,2011-12-07 20:48:00,
2011-12-07 14:03:00,49.6,20.8,30.07,WNW,292,4.2,5.4,32,0.00,,,0.00,open2300-1.11,2011-12-07 21:03:00,
2011-12-07 14:17:00,52.0,21.5,30.06,WNW,292,3.4,6.0,30,0.00,,,0.00,open2300-1.11,2011-12-07 21:17:00,
2011-12-07 14:32:00,52.7,21.2,30.06,WNW,292,0.0,6.3,29,0.00,,,0.00,open2300-1.11,2011-12-07 21:32:00,
2011-12-07 14:48:00,52.5,21.1,30.06,NW,315,0.0,5.8,29,0.00,,,0.00,open2300-1.11,2011-12-07 21:48:00,
2011-12-07 15:02:00,50.2,19.0,30.06,WSW,247,0.0,6.7,29,0.00,,,0.00,open2300-1.11,2011-12-07 22:02:00,
2011-12-07 15:17:00,49.8,18.7,30.05,West,270,1.3,6.5,29,0.00,,,0.00,open2300-1.11,2011-12-07 22:17:00,
2011-12-07 15:33:00,49.8,18.7,30.04,WNW,292,0.0,4.2,29,0.00,,,0.00,open2300-1.11,2011-12-07 22:33:00,
2011-12-07 15:47:00,49.8,18.7,30.05,WNW,292,0.0,4.2,29,0.00,,,0.00,open2300-1.11,2011-12-07 22:47:00,
2011-12-07 16:03:00,49.3,17.3,30.05,WNW,292,0.0,2.9,28,0.00,,,0.00,open2300-1.11,2011-12-07 23:03:00,
2011-12-07 16:18:00,48.6,16.7,30.05,SW,225,0.9,2.2,28,0.00,,,0.00,open2300-1.11,2011-12-07 23:18:00,
2011-12-07 16:32:00,47.1,16.4,30.05,West,270,0.9,0.9,29,0.00,,,0.00,open2300-1.11,2011-12-07 23:32:00,
2011-12-07 16:49:00,43.0,14.3,30.05,WNW,292,1.1,2.2,31,0.00,,,0.00,open2300-1.11,2011-12-07 23:49:00,
2011-12-07 17:03:00,38.1,12.0,30.05,WNW,292,0.0,3.8,34,0.00,,,0.00,open2300-1.11,2011-12-08 00:03:00,
2011-12-07 17:18:00,36.3,11.7,30.05,WNW,292,0.0,0.0,36,0.00,,,0.00,open2300-1.11,2011-12-08 00:18:00,
2011-12-07 17:34:00,34.9,11.1,30.05,WNW,292,0.0,0.0,37,0.00,,,0.00,open2300-1.11,2011-12-08 00:34:00,
2011-12-07 17:47:00,33.6,11.2,30.06,WNW,292,0.0,0.0,39,0.00,,,0.00,open2300-1.11,2011-12-08 00:47:00,
2011-12-07 18:02:00,32.7,10.4,30.05,WNW,292,0.0,0.0,39,0.00,,,0.00,open2300-1.11,2011-12-08 01:02:00,
2011-12-07 18:17:00,30.7,9.3,30.06,WNW,292,0.0,0.0,40,0.00,,,0.00,open2300-1.11,2011-12-08 01:17:00,
2011-12-07 18:33:00,28.9,9.2,30.06,WNW,292,0.0,0.0,43,0.00,,,0.00,open2300-1.11,2011-12-08 01:33:00,
2011-12-07 18:47:00,27.7,8.5,30.06,WNW,292,0.0,0.0,44,0.00,,,0.00,open2300-1.11,2011-12-08 01:47:00,
2011-12-07 19:02:00,26.2,8.1,30.06,WNW,292,0.0,0.0,46,0.00,,,0.00,open2300-1.11,2011-12-08 02:02:00,
2011-12-07 19:17:00,24.6,7.7,30.06,WNW,292,0.0,0.0,48,0.00,,,0.00,open2300-1.11,2011-12-08 02:17:00,
2011-12-07 19:33:00,23.5,7.7,30.06,WNW,292,0.0,0.0,50,0.00,,,0.00,open2300-1.11,2011-12-08 02:33:00,
2011-12-07 19:47:00,22.6,7.6,30.06,East,90,0.0,0.0,52,0.00,,,0.00,open2300-1.11,2011-12-08 02:47:00,
2011-12-07 20:03:00,22.6,8.4,30.06,East,90,0.0,0.0,54,0.00,,,0.00,open2300-1.11,2011-12-08 03:03:00,
2011-12-07 20:18:00,23.2,9.7,30.05,SSE,157,2.0,6.0,56,0.00,,,0.00,open2300-1.11,2011-12-08 03:18:00,
2011-12-07 20:32:00,23.4,10.3,30.04,ENE,67,2.5,6.3,57,0.00,,,0.00,open2300-1.11,2011-12-08 03:32:00,
2011-12-07 20:48:00,23.7,10.2,30.03,East,90,4.0,4.0,56,0.00,,,0.00,open2300-1.11,2011-12-08 03:48:00,
2011-12-07 21:03:00,24.4,10.9,30.04,ESE,112,0.0,5.6,56,0.00,,,0.00,open2300-1.11,2011-12-08 04:03:00,
2011-12-07 21:17:00,24.6,11.1,30.04,SSE,157,6.9,6.9,56,0.00,,,0.00,open2300-1.11,2011-12-08 04:17:00,
2011-12-07 21:32:00,24.6,11.1,30.02,ESE,112,1.8,6.9,56,0.00,,,0.00,open2300-1.11,2011-12-08 04:32:00,
2011-12-07 21:48:00,24.4,10.9,30.03,East,90,2.5,2.9,56,0.00,,,0.00,open2300-1.11,2011-12-08 04:48:00,
2011-12-07 22:03:00,24.1,11.0,30.02,East,90,4.2,6.5,57,0.00,,,0.00,open2300-1.11,2011-12-08 05:03:00,
2011-12-07 22:18:00,23.9,11.2,30.02,ESE,112,5.1,13.2,58,0.00,,,0.00,open2300-1.11,2011-12-08 05:18:00,
2011-12-07 22:33:00,23.5,10.9,30.02,NE,45,6.0,6.3,58,0.00,,,0.00,open2300-1.11,2011-12-08 05:33:00,
2011-12-07 22:47:00,23.5,11.2,30.02,East,90,3.8,9.4,59,0.00,,,0.00,open2300-1.11,2011-12-08 05:47:00,
2011-12-07 23:03:00,23.4,11.1,30.02,East,90,6.3,7.8,59,0.00,,,0.00,open2300-1.11,2011-12-08 06:03:00,
2011-12-07 23:18:00,22.5,10.2,30.03,East,90,0.0,6.3,59,0.00,,,0.00,open2300-1.11,2011-12-08 06:18:00,
2011-12-07 23:32:00,21.9,10.5,30.03,East,90,0.0,8.3,61,0.00,,,0.00,open2300-1.11,2011-12-08 06:32:00,
2011-12-07 23:48:00,21.4,10.0,30.02,ENE,67,0.0,2.9,61,0.00,,,0.00,open2300-1.11,2011-12-08 06:48:00,